Weather History for KCNC - November, 2013

Change the Weather History Date:

Wednesday, November 6, 2013

  Actual Average Record
Temperature  
Mean Temperature 42 °F -  
Max Temperature 51 °F 52 °F 75 °F (2001)
Min Temperature 32 °F 32 °F 12 °F (1951)
Degree Days  
Heating Degree Days 24    
Moisture  
Dew Point 33 °F    
Average Humidity 80    
Maximum Humidity 100    
Minimum Humidity 49    
Precipitation  
Precipitation 0.09 in - - ()
Sea Level Pressure  
Sea Level Pressure 30.11 in    
Wind  
Wind Speed 15 mph (NW)    
Max Wind Speed 23 mph    
Max Gust Speed 30 mph    
Visibility 9 miles    
Events Rain    
Averages and records for this station are not official NWS values.
T = Trace of Precipitation, MM = Missing Value Source: NWS Daily Summary

Daily Weather History Graph

Daily Weather History Graph

Search for Another Location

Airport or City:

Trip Planner

Search our weather history database for the weather conditions in past years. The results will help you decide how hot, cold, wet, or windy it might be!

Date:

Astronomy

Nov. 06, 2013 Rise Set
Actual Time 6:50 AM CST 5:03 PM CST
Civil Twilight 6:21 AM CST 5:31 PM CST
Nautical Twilight 5:48 AM CST 6:04 PM CST
Astronomical Twilight 5:16 AM CST 6:36 PM CST
Moon 10:06 AM CST 8:07 PM CST
Length of Visible Light 11h 10m
Length of Day
10h 12m
Waxing Crescent, 14% of the Moon is Illuminated
Nov 6
Waxing Crescent
Nov 9
First Quarter
Nov 17
Full
Nov 25
Last Quarter
Dec 2
New

Hourly Weather History & Observations

Time (CST) Temp. Windchill Dew Point Humidity Pressure Visibility Wind Dir Wind Speed Gust Speed Precip Events Conditions
12:15 AM 51.8 °F - 51.8 °F 100% 29.83 in 3.0 mi WNW 17.3 mph - N/A Rain Rain
12:55 AM 44.6 °F 36.4 °F 42.8 °F 93% 29.84 in 10.0 mi WNW 20.7 mph - 0.09 in   Overcast
1:15 AM 42.8 °F 34.5 °F 42.8 °F 100% 29.85 in 10.0 mi NW 18.4 mph 25.3 mph N/A   Overcast
1:55 AM 41.0 °F 31.9 °F 41.0 °F 100% 29.89 in 2.0 mi NW 19.6 mph - N/A Rain Light Rain
2:15 AM 41.0 °F 32.8 °F 39.2 °F 93% 29.89 in 2.5 mi NW 16.1 mph 21.9 mph N/A   Light Drizzle
2:35 AM 41.0 °F 32.2 °F 39.2 °F 93% 29.90 in 7.0 mi NW 18.4 mph 26.5 mph N/A   Overcast
2:55 AM 39.2 °F 28.7 °F 39.2 °F 100% 29.89 in 6.0 mi NW 23.0 mph - N/A   Overcast
3:15 AM 37.4 °F 27.5 °F 37.4 °F 100% 29.90 in 3.0 mi NW 18.4 mph 29.9 mph N/A   Overcast
3:35 AM 37.4 °F 26.9 °F 37.4 °F 100% 29.94 in 5.0 mi NW 20.7 mph 28.8 mph N/A   Overcast
3:55 AM 37.4 °F 27.8 °F 35.6 °F 93% 29.95 in 5.0 mi NW 17.3 mph 25.3 mph N/A   Overcast
4:15 AM 37.4 °F 26.9 °F 35.6 °F 93% 29.94 in 5.0 mi NW 20.7 mph - N/A   Overcast
4:35 AM 37.4 °F 28.2 °F 35.6 °F 93% 29.92 in 3.0 mi NNW 16.1 mph 24.2 mph N/A   Overcast
4:55 AM 37.4 °F 28.2 °F 35.6 °F 93% 29.97 in 3.0 mi NNW 16.1 mph 23.0 mph N/A   Overcast
5:15 AM 37.4 °F 26.9 °F 35.6 °F 93% 29.96 in 6.0 mi NNW 20.7 mph - N/A   Overcast
5:35 AM 37.4 °F 27.8 °F 35.6 °F 93% 29.97 in 8.0 mi NNW 17.3 mph 26.5 mph N/A   Overcast
5:55 AM 37.4 °F 26.6 °F 35.6 °F 93% 29.96 in 5.0 mi NNW 21.9 mph 27.6 mph N/A   Light Drizzle
6:15 AM 37.4 °F 28.2 °F 35.6 °F 93% 29.97 in 6.0 mi NNW 16.1 mph 25.3 mph N/A Rain Light Rain
6:35 AM 37.4 °F 28.5 °F 35.6 °F 93% 30.00 in 6.0 mi NNW 15.0 mph 21.9 mph N/A   Overcast
6:55 AM 37.4 °F 30.3 °F 35.6 °F 93% 30.01 in 5.0 mi NNW 10.4 mph 21.9 mph N/A   Overcast
7:15 AM 37.4 °F 28.9 °F 35.6 °F 93% 30.03 in 6.0 mi NNW 13.8 mph 20.7 mph N/A   Overcast
7:35 AM 37.4 °F 29.3 °F 35.6 °F 93% 30.04 in 10.0 mi NNW 12.7 mph - N/A   Overcast
7:55 AM 37.4 °F 28.9 °F 35.6 °F 93% 30.06 in 10.0 mi NW 13.8 mph - N/A   Overcast
8:15 AM 37.4 °F 29.3 °F 35.6 °F 93% 30.08 in 10.0 mi NW 12.7 mph 20.7 mph N/A   Overcast
8:35 AM 37.4 °F 27.5 °F 35.6 °F 93% 30.08 in 10.0 mi NW 18.4 mph - N/A   Overcast
8:55 AM 37.4 °F 27.8 °F 33.8 °F 87% 30.09 in 10.0 mi NW 17.3 mph 23.0 mph N/A   Overcast
9:15 AM 37.4 °F 27.8 °F 33.8 °F 87% 30.10 in 10.0 mi NNW 17.3 mph 27.6 mph N/A   Overcast
9:35 AM 37.4 °F 28.2 °F 33.8 °F 87% 30.11 in 10.0 mi NNW 16.1 mph 21.9 mph N/A   Overcast
9:55 AM 39.2 °F 30.5 °F 33.8 °F 81% 30.12 in 10.0 mi NW 16.1 mph - N/A   Overcast
10:15 AM 37.4 °F 28.5 °F 33.8 °F 87% 30.13 in 10.0 mi NW 15.0 mph 23.0 mph N/A   Overcast
10:35 AM 39.2 °F 29.8 °F 33.8 °F 81% 30.13 in 10.0 mi NW 18.4 mph 24.2 mph N/A   Overcast
10:55 AM 41.0 °F 32.8 °F 33.8 °F 76% 30.14 in 10.0 mi NW 16.1 mph 23.0 mph N/A   Mostly Cloudy
11:15 AM 41.0 °F 32.8 °F 33.8 °F 76% 30.15 in 10.0 mi NW 16.1 mph - N/A   Mostly Cloudy
11:35 AM 41.0 °F 32.8 °F 33.8 °F 76% 30.14 in 10.0 mi NW 16.1 mph 21.9 mph N/A   Mostly Cloudy
11:55 AM 42.8 °F 35.4 °F 33.8 °F 70% 30.14 in 10.0 mi NW 15.0 mph 21.9 mph N/A   Scattered Clouds
12:15 PM 42.8 °F 34.5 °F 33.8 °F 70% 30.14 in 10.0 mi NW 18.4 mph 24.2 mph N/A   Scattered Clouds
12:35 PM 42.8 °F 35.1 °F 33.8 °F 70% 30.14 in 10.0 mi NW 16.1 mph 23.0 mph N/A   Partly Cloudy
12:55 PM 44.6 °F 37.4 °F 33.8 °F 66% 30.14 in 10.0 mi NW 16.1 mph 21.9 mph N/A   Partly Cloudy
1:15 PM 44.6 °F 37.2 °F 32.0 °F 61% 30.14 in 10.0 mi NNW 17.3 mph 25.3 mph N/A   Scattered Clouds
1:35 PM 44.6 °F 36.9 °F 32.0 °F 61% 30.15 in 10.0 mi NW 18.4 mph 25.3 mph N/A   Partly Cloudy
1:55 PM 44.6 °F 37.4 °F 32.0 °F 61% 30.15 in 10.0 mi NW 16.1 mph 23.0 mph N/A   Clear
2:15 PM 44.6 °F 37.2 °F 28.4 °F 53% 30.16 in 10.0 mi NW 17.3 mph - N/A   Clear
2:35 PM 44.6 °F 37.8 °F 28.4 °F 53% 30.17 in 10.0 mi NW 15.0 mph 24.2 mph N/A   Clear
2:55 PM 44.6 °F 37.4 °F 28.4 °F 53% 30.18 in 10.0 mi NW 16.1 mph - N/A   Clear
3:15 PM 44.6 °F 38.1 °F 28.4 °F 53% 30.18 in 10.0 mi NW 13.8 mph - N/A   Clear
3:35 PM 44.6 °F 38.1 °F 26.6 °F 49% 30.18 in 10.0 mi NW 13.8 mph - N/A   Clear
3:55 PM 44.6 °F 39.2 °F 28.4 °F 53% 30.20 in 10.0 mi NW 10.4 mph 18.4 mph N/A   Clear
4:15 PM 44.6 °F 38.8 °F 28.4 °F 53% 30.20 in 10.0 mi NW 11.5 mph - N/A   Clear
4:35 PM 42.8 °F 37.0 °F 28.4 °F 57% 30.21 in 10.0 mi NW 10.4 mph - N/A   Clear
4:55 PM 41.0 °F 35.2 °F 26.6 °F 57% 30.21 in 10.0 mi NW 9.2 mph - N/A   Clear
5:15 PM 39.2 °F 34.2 °F 28.4 °F 65% 30.22 in 10.0 mi NW 6.9 mph - N/A   Clear
5:35 PM 39.2 °F 34.2 °F 28.4 °F 65% 30.22 in 10.0 mi NW 6.9 mph - N/A   Clear
5:55 PM 37.4 °F 33.8 °F 26.6 °F 65% 30.22 in 10.0 mi NNW 4.6 mph - N/A   Clear
6:15 PM 37.4 °F 34.9 °F 26.6 °F 65% 30.22 in 10.0 mi NW 3.5 mph - N/A   Clear
6:35 PM 37.4 °F 33.8 °F 26.6 °F 65% 30.23 in 10.0 mi WNW 4.6 mph - N/A   Clear
6:55 PM 37.4 °F 33.8 °F 26.6 °F 65% 30.23 in 10.0 mi West 4.6 mph - N/A   Partly Cloudy
7:15 PM 37.4 °F 32.8 °F 26.6 °F 65% 30.24 in 10.0 mi West 5.8 mph - N/A   Clear
7:35 PM 33.8 °F 27.0 °F 28.4 °F 81% 30.25 in 10.0 mi West 8.1 mph - N/A   Partly Cloudy
7:55 PM 33.8 °F 28.6 °F 28.4 °F 81% 30.24 in 10.0 mi West 5.8 mph - N/A   Scattered Clouds
8:15 PM 33.8 °F 27.7 °F 28.4 °F 81% 30.25 in 10.0 mi West 6.9 mph - N/A   Scattered Clouds
8:35 PM 33.8 °F 27.7 °F 28.4 °F 81% 30.25 in 10.0 mi West 6.9 mph - N/A   Partly Cloudy
8:55 PM 33.8 °F 27.7 °F 28.4 °F 81% 30.25 in 10.0 mi West 6.9 mph - N/A   Partly Cloudy
9:15 PM 33.8 °F 28.6 °F 28.4 °F 81% 30.26 in 10.0 mi WSW 5.8 mph - N/A   Partly Cloudy
9:35 PM 32.0 °F 26.4 °F 28.4 °F 87% 30.27 in 10.0 mi WSW 5.8 mph - N/A   Clear
9:55 PM 33.8 °F 27.0 °F 28.4 °F 81% 30.27 in 10.0 mi West 8.1 mph - N/A   Clear
10:15 PM 33.8 °F 28.6 °F 28.4 °F 81% 30.27 in 10.0 mi WSW 5.8 mph - N/A   Partly Cloudy
10:35 PM 32.0 °F 26.4 °F 26.6 °F 80% 30.28 in 10.0 mi WSW 5.8 mph - N/A   Scattered Clouds
10:55 PM 32.0 °F 26.4 °F 28.4 °F 87% 30.27 in 10.0 mi WSW 5.8 mph - N/A   Mostly Cloudy
11:15 PM 32.0 °F 26.4 °F 28.4 °F 87% 30.28 in 10.0 mi WSW 5.8 mph - N/A   Overcast
11:35 PM 32.0 °F 26.4 °F 28.4 °F 87% 30.27 in 10.0 mi WSW 5.8 mph - N/A   Overcast
11:55 PM 33.8 °F 28.6 °F 30.2 °F 87% 30.27 in 10.0 mi WSW 5.8 mph - N/A   Overcast